Regional Weather Roundup
Issued by NWS

Home | Current Version | Previous Version | Graphics & Text | Print | Product List | Glossary On
Versions: 1 2 3 4 5 6 7 8 9 10 11 12 13 14 15 16 17 18 19 20 21 22 23 24 25 26 27 28 29 30 31 32 33 34 35 36 37 38 39 40 41 42 43 44 45 46 47 48 49 50
000
ASUS45 KTFX 282219
RWRMT
MONTANA HOURLY WEATHER ROUNDUP
NATIONAL WEATHER SERVICE GREAT FALLS MT
419 PM MDT SAT MAR 28 2015

NOTE: "FAIR" INDICATES FEW OR NO CLOUDS BELOW 12000 FEET WITH NO
SIGNIFICANT WEATHER AND/OR OBSTRUCTIONS TO VISIBILITY.

* THESE STATIONS ARE NOT UNDER NWS QUALITY CONTROL. THEY DO NOT
   REPORT WEATHER SUCH AS PRECIPITATION OR FOG.

MTZ001>007-043-282300-
WEST OF THE DIVIDE
CITY           SKY/WX    TMP DP  RH WIND       PRES   REMARKS
KALISPELL      CLOUDY    52  30  43 W16G26    30.01R
MISSOULA       CLOUDY    52  30  43 W15G35    30.13R
BUTTE          PTCLDY    48  19  32 W18G36    30.05S
MULLAN PASS    CLOUDY    34  32  92 N/A       30.13R
* ESSEX        N/A       44  30  58 W4G13      N/A
* EUREKA APT   PTSUNNY   52  34  50 SE6        N/A
* HAMILTON APT PTCLDY    48  30  50 S10       30.17R
* LIBBY APT    PTCLDY    52  34  50 S5        30.08R
* LINCOLN      N/A       46  24  42 SW13G34    N/A
* LOOKOUT PASS N/A       40  35  82 SE6G15     N/A   WCI  36
* POLSON       N/A       52  39  61 SW4G11     N/A
* RONAN APT    PTCLDY    52  36  55 SW18G25    N/A
* SEELEY LAKE  N/A       47  28  48 W13G29     N/A
* THOMP F APT  PTCLDY    56  23  28 W7G21      N/A
* YAAK HILL    N/A       58  30  35 SW6        N/A
$$

MTZ008-052>055-282300-
SOUTHWEST MONTANA
CITY           SKY/WX    TMP DP  RH WIND       PRES   REMARKS
BOZEMAN        CLOUDY    55  16  21 W36G45    30.00R
DILLON         PTCLDY    52  16  24 W23G37    30.08F
* W YELLOWSTON PTCLDY    54  21  27 W9G22      N/A
* THREE FORKS  PTCLDY    57  18  22 SW31G40    N/A
* TWIN BRIDGES PTCLDY    54  12  19 SW22G36    N/A
* BOULDER HILL N/A       45  17  32 W2G38      N/A
* HOMESTAKE PS N/A       43  18  37 W14G34     N/A
* MONIDA PASS  N/A       48  16  28 NW22G32    N/A
* RAYNOLDS PAS N/A       51  40  66 W14G23     N/A
* WHITEHALL    N/A       54  18  24 W15G32     N/A
* WISE RIVER   N/A       47  20  34 W23G39     N/A
$$

MTZ009>010-012-014-046-048-049-054-282300-
EAST SLOPES AND CENTRAL MONTANA
CITY           SKY/WX    TMP DP  RH WIND       PRES   REMARKS
CUT BANK       CLOUDY    48  27  44 W36G47    29.82R
GREAT FALLS    PTSUNNY   54  23  30 W36G51    29.85R
HELENA         CLOUDY    52  25  35 W24G41    29.97R
MALMSTROM AFB  PTCLDY    54  21  27 W37G48    29.87R
* DEARBORN     N/A       52  27  38 S21G29     N/A
* EAST GLACIER N/A       39  29  67 NW33G44    N/A   WCI  27
* MONARCH      N/A       47  16  29 W35G53     N/A
* PENDROY      N/A       46  26  46 NW35G44    N/A
* ROGERS PASS  N/A       38  27  65 E22G42     N/A   WCI  27
* SAINT MARY   N/A       39  30  70 SW11G32    N/A   WCI  32
* WHITE SULPH  N/A       51  18  27 W15G30     N/A
$$

MTZ011-013-016-021-035-040-045-047-050-051-282300-
NORTH CENTRAL MONTANA
CITY           SKY/WX    TMP DP  RH WIND       PRES   REMARKS
HAVRE          CLOUDY    55  27  34 W33G38    29.72R
LEWISTOWN      PTSUNNY   54  18  24 W31G45    29.80F
* N BAR RANCH  SUNNY     54  16  22 W24G47    29.77S
* CHINOOK      CLOUDY    55  28  35 W24G35    29.70R
* FORT BENTON  PTCLDY    55  21  27 W31G43    29.81R
* MALTA APT    CLOUDY    54  39  57 SW31G37    N/A
* CHESTER      N/A       55  25  31 W28G46     N/A
* DENTON       N/A       57  24  28 W39G55     N/A
* GEYSER       N/A       53  20  27 W44G57     N/A
* JUDITH GAP   N/A       53  23  31 W32G50     N/A
* LOMA         N/A       58  20  23 SW38G50    N/A
$$

MTZ017>020-022>027-061-062-282300-
NORTHEAST MONTANA
CITY           SKY/WX    TMP DP  RH WIND       PRES   REMARKS
GLASGOW        LGT RAIN  52  39  61 W33G47    29.63R
GLENDIVE       CLOUDY    63  45  52 W32G47    29.57R
JORDAN         CLOUDY    54  43  67 W33G40    29.70R
SIDNEY         CLOUDY    66  43  43 W37G53    29.49R
WOLF POINT     CLOUDY    66  45  47 W31G39    29.56R
* BEAVER HILL  N/A       77  31  19 W20G32     N/A
* CIRCLE       N/A       57  48  72 W11G24     N/A
* LINDSAY DVD  N/A       56  46  69 W24G40     N/A
* NAVAJO       N/A       65  43  45 W19G24     N/A
* POPLAR APT   CLOUDY    61  46  58 W21G26    29.54R VSB 3
* SACO         N/A       52  43  72 W28G37     N/A
$$

MTZ028>042-056>058-282300-
SOUTHCENTRAL AND SOUTHEAST MONTANA
CITY           SKY/WX    TMP DP  RH WIND       PRES   REMARKS
BAKER          PTCLDY    79  28  15 W18G31    29.52F
BILLINGS       PTCLDY    63  28  27 W44G58    29.77R
LIVINGSTON     PTCLDY    57  16  20 W38G53    29.91F
MILES CITY     CLOUDY    64  43  47 NW22G31   29.61R
* BIG TIMBER A PTCLDY    54  18  24 W26G40    29.90R
* FORSYTH APT  PTSUNNY   64  39  40 NW29G45   29.68R
* LAUREL APT   PTCLDY    61  30  31 W45G61     N/A
* ROUNDUP APT  PTCLDY    59  19  21 W46G66     N/A
* ALZADA       N/A       79  24  13 SW15G22    N/A
* HYSHAM       N/A       61  30  31 NW17G29    N/A
* LAME DEER    N/A       63  34  34 NW26G40    N/A
* REED POINT   N/A       59  32  36 W37G52     N/A
* ROSCOE HILL  N/A       59  25  27 W4G18      N/A
$$

REGIONAL REPORTS...DAKOTAS
CITY           SKY/WX    TMP DP  RH WIND       PRES   REMARKS
WILLISTON      CLOUDY    77  36  23 SW17G24   29.40F
DICKINSON      PTSUNNY   79  34  20 S25G30    29.48F
BEACH          PTCLDY    77  28  16 SW16G25   29.48F
CROSBY         SUNNY     66  45  47 W6        29.43F
TIOGA          PTCLDY    75  36  24 W23G30    29.44F
WATFORD CITY   SUNNY     75  34  22 W14G22    29.42F
BISMARCK       PTCLDY    66  36  33 S20G28    29.61F
GRAND FORKS    CLOUDY    48  30  50 S23G38    29.77F
FARGO          SUNNY     54  28  37 S28G37    29.84F
BUFFALO SD     SUNNY     81  28  14 SW22      29.51F
RAPID CITY     SUNNY     82  27  13 W17       29.62F
$$

REGIONAL REPORTS...WYOMING/IDAHO/WASHINGTON
CITY           SKY/WX    TMP DP  RH WIND       PRES   REMARKS
GILLETTE       PTSUNNY   75  25  15 SW26G38   29.65F
SHERIDAN       HAZE      66  34  31 N39G49    29.70R
CODY           CLOUDY    63  25  24 NW15G26   29.87R
YELLOWSTONE LA PTSUNNY   43  25  49 W13G22    30.03R
SALMON         PTCLDY   N/A N/A N/A NE3G20    30.11S
MULLAN PASS    CLOUDY    34  32  92 N/A       30.13S
SAND POINT     LGT RAIN  50  43  77 E9        30.12R
SPOKANE        PTSUNNY   55  36  49 SW25G35   30.15R
$$

REGIONAL REPORTS...ALBERTA
CITY           SKY/WX    TMP DP  RH WIND       PRES   REMARKS
CALGARY        PTSUNNY   48  37  66 N17G24    29.82R
LETHBRIDGE     LGT RAIN  41  39  93 W26G35    29.84R
MEDICINE HAT   LGT RAIN  46  45  96 NW17G28   29.72R
EDMONTON       PTSUNNY   43  36  76 NW25G32   29.81R
WATERTON GATE  N/A       41  32  70 SW18G32    N/A
CARDSTON       N/A       39  37  93 NW21G29    N/A   WCI  29
MILK RIVER     N/A       41  36  82 NW39G48    N/A
$$

REGIONAL REPORTS...SASKATCHEWAN
CITY           SKY/WX    TMP DP  RH WIND       PRES   REMARKS
SWIFT CURRENT  LGT RAIN  50  46  86 W15G21    29.54R
REGINA         LGT RAIN  50  46  86 NW16      29.47R
VAL MARIE      N/A       55  39  55 W35G45     N/A
ASSINIBOIA     N/A       52  48  86 W23G30     N/A
CORONACH       N/A       61  45  56 W25G35     N/A

$$




USA.gov is the U.S. government's official web portal to all federal, state and local government web resources and services.